Wind_Speed
14 14 13 13 12 11 11 10 10 10 10 10 10 10 9 9 8 8 8 8 8 8 8 7 6 6 5 4 3 3 2 2 2 1 1 2 3 3 3 3 3 3
15 15 15 14 14 13 13 12 11 11 10 10 10 10 10 10 9 9 9 8 8 8 8 7 7 6 5 5 4 3 3 2 2 2 2 3 3 3 3 3 3 3
17 16 16 16 15 14 14 13 12 12 11 11 12 11 11 11 10 10 10 10 9 9 9 8 8 7 6 6 5 4 3 3 3 3 2 2 3 3 3 3 3 4
19 19 18 17 16 15 14 14 14 13 13 13 12 12 11 11 12 11 11 11 10 10 9 9 9 8 8 7 6 5 4 4 3 3 2 2 2 2 2 3 4 4
20 20 19 18 17 16 16 16 16 15 15 14 13 13 13 13 12 12 12 12 12 11 11 10 9 9 8 7 7 6 5 5 4 4 3 3 2 3 3 3 4 4
20 20 20 20 19 18 18 18 17 16 16 15 14 14 14 14 13 13 13 13 13 12 12 11 10 9 9 8 7 7 6 5 5 5 4 4 3 4 4 4 4 4
21 21 21 21 21 20 21 20 19 18 17 16 16 16 16 16 15 15 14 14 13 13 12 11 10 9 9 8 8 7 6 6 6 6 5 5 5 5 5 5 5 5
23 22 22 22 22 22 22 22 21 20 19 18 18 18 17 17 17 16 16 15 14 14 13 11 11 10 10 10 9 9 8 8 7 7 7 7 7 6 6 6 6 6
24 24 23 22 22 23 23 23 22 22 22 21 21 20 19 19 19 18 18 17 16 15 14 13 13 12 12 12 12 12 11 10 10 10 9 9 9 8 8 7 8 8
25 24 24 23 23 24 24 24 24 24 23 23 23 22 21 21 20 20 19 18 18 17 16 16 16 15 15 15 15 14 14 13 12 12 12 11 11 10 9 8 9 9
26 26 25 24 25 25 25 25 25 25 25 25 24 24 23 23 22 21 21 20 19 19 18 18 18 18 17 17 16 16 15 15 14 14 13 13 13 12 11 10 10 10
27 27 27 26 26 26 25 25 25 25 25 25 25 24 24 23 23 23 22 21 21 20 20 20 19 19 19 18 18 18 18 17 16 15 15 14 14 13 13 12 12 11
27 28 28 28 27 26 26 25 24 24 24 24 24 24 24 23 23 23 22 22 21 21 21 21 21 21 21 21 20 20 20 19 18 18 17 16 15 15 15 14 13 12
27 29 30 30 30 29 28 27 26 25 25 24 24 24 24 23 23 23 22 22 23 23 23 22 22 23 23 22 22 22 22 21 20 20 19 18 18 17 16 16 15 14
28 30 31 32 32 32 31 29 28 27 27 26 26 25 25 24 24 23 23 23 24 25 24 24 24 24 25 24 24 23 23 22 22 21 20 21 20 19 18 17 17 16
28 30 31 33 33 33 33 31 30 30 30 29 29 28 28 27 26 25 25 26 27 27 26 25 25 25 25 24 24 23 23 23 23 22 22 22 22 21 20 19 18 18
29 30 31 32 33 34 34 33 33 33 33 32 31 31 30 29 28 27 27 28 29 28 27 26 26 26 25 23 22 22 23 23 24 24 23 23 24 23 22 21 19 17
31 31 31 31 33 34 35 35 35 35 35 34 33 31 31 31 30 29 29 29 30 30 28 27 26 26 26 24 22 23 25 25 25 24 23 24 25 25 24 23 21 19
34 32 32 32 34 35 35 35 36 36 36 35 33 31 30 30 30 31 31 30 31 30 29 28 27 27 27 27 26 27 29 28 26 24 24 25 25 26 27 26 25 24
38 36 35 37 37 36 35 35 35 35 35 34 32 31 29 29 30 30 29 29 29 29 28 27 27 28 28 29 29 29 29 28 26 25 25 27 27 27 28 29 29 29
41 39 38 40 40 38 37 37 35 33 33 33 33 32 30 30 30 28 26 28 30 29 28 27 27 28 28 28 29 29 28 27 27 27 28 29 28 28 28 30 31 32
42 41 40 40 41 40 39 39 37 35 34 34 34 34 33 31 31 29 29 31 32 31 29 28 30 30 29 28 29 29 29 28 28 28 29 30 30 29 28 30 31 32
43 42 40 38 40 41 41 40 40 39 38 37 36 36 34 33 33 32 32 33 34 34 32 32 33 33 32 32 32 32 31 31 31 30 30 31 32 31 29 30 31 32
40 41 39 38 38 40 42 42 42 42 42 39 37 36 35 35 35 35 35 36 36 37 36 36 36 35 35 35 34 34 34 34 33 32 32 32 32 31 30 31 31 32
37 38 39 39 38 40 42 42 41 44 44 40 37 36 36 37 37 38 38 38 37 37 36 36 36 37 37 36 35 34 35 35 34 33 33 33 32 31 31 31 31 31
34 34 35 37 37 39 43 41 37 39 43 41 38 38 38 38 39 39 39 38 37 36 35 34 34 34 35 36 35 34 35 35 33 32 32 31 31 31 31 30 29 29
Wind_Direction
203 199 195 195 195 195 195 195 193 193 194 192 192 195 197 199 199 201 203 203 200 194 189 188 184 180 180 180 182 191 192 186 195 204 192 202 225 229 233 247 261 270
212 209 205 201 200 199 198 198 197 198 199 198 199 201 203 204 205 207 209 209 209 206 201 200 196 191 191 193 200 209 218 222 225 232 227 220 224 225 224 234 255 274
215 217 215 211 208 206 203 203 203 202 202 204 205 206 207 207 208 212 213 212 213 213 210 208 207 204 201 203 211 216 225 237 243 246 256 256 247 239 232 229 242 261
215 219 221 219 217 214 210 209 210 208 208 209 211 211 211 212 211 213 215 216 216 218 216 214 214 215 214 215 221 224 228 238 247 251 268 284 283 275 262 246 244 254
217 220 223 224 222 220 217 216 215 214 214 214 215 215 215 217 217 217 217 217 218 220 221 220 219 222 226 228 232 236 238 242 246 254 272 289 300 307 300 271 253 251
217 220 223 224 224 222 222 222 220 219 220 219 219 219 219 220 220 221 220 219 219 221 223 224 225 229 233 238 243 247 250 253 257 263 274 285 292 298 300 287 270 263
218 219 221 223 223 223 224 225 224 223 223 221 222 223 222 223 223 223 223 223 223 224 225 227 231 236 242 247 252 255 256 258 264 267 272 277 281 286 288 286 282 278
220 220 222 223 224 225 226 227 226 226 225 222 223 224 224 225 225 224 224 224 225 226 227 230 232 237 243 248 252 254 254 254 256 259 260 263 269 277 282 286 288 288
225 223 223 224 226 227 228 228 228 228 227 225 224 224 225 226 226 225 225 224 225 225 225 227 229 232 236 241 244 247 248 248 247 247 247 248 253 261 268 275 281 283
230 229 227 226 227 229 230 230 230 230 229 229 228 226 225 226 226 225 225 225 225 224 224 225 227 229 232 235 238 241 242 244 245 245 243 242 244 248 252 259 267 272
232 234 232 230 229 230 231 231 231 232 232 231 231 229 227 227 227 227 227 227 227 226 227 228 228 230 233 235 238 241 244 245 247 248 246 245 245 245 244 244 251 258
233 235 237 236 234 234 234 235 235 236 237 237 236 234 232 231 231 231 231 230 231 231 231 231 231 233 235 238 239 242 244 245 246 248 249 248 248 248 246 242 241 244
234 234 237 239 239 239 239 239 239 239 240 241 242 242 240 238 237 236 235 234 235 236 235 235 235 236 237 238 238 240 242 244 245 245 246 246 247 248 249 249 247 242
234 233 234 236 238 239 240 240 239 239 239 240 240 242 243 243 242 241 239 238 239 239 239 237 236 237 238 239 238 240 242 243 244 245 246 246 247 249 249 251 253 250
235 233 233 234 235 236 238 239 239 239 240 240 239 238 239 240 242 243 242 241 242 242 242 240 239 239 240 241 242 242 242 244 246 247 248 248 250 251 251 251 252 252
236 235 235 235 235 235 236 238 239 239 240 240 240 240 239 239 238 240 242 244 246 247 247 246 246 246 247 248 250 250 250 249 249 250 250 251 251 251 251 252 253 255
239 238 237 236 237 237 236 236 237 238 238 239 240 241 242 243 242 241 241 244 247 250 252 254 254 255 256 256 258 260 261 259 255 254 253 253 252 252 251 250 252 256
240 241 241 239 239 239 237 235 235 236 237 238 239 241 243 245 246 246 244 245 247 249 251 253 254 256 257 256 255 258 261 261 259 258 258 257 256 256 255 251 250 253
242 243 244 243 242 243 241 239 237 237 238 240 240 241 243 246 247 246 246 246 246 248 249 249 250 250 251 250 248 250 253 256 258 259 261 261 261 261 260 257 254 254
245 244 245 245 244 245 244 243 240 239 239 241 241 241 243 246 246 247 249 251 250 250 250 250 248 247 246 245 245 248 252 255 258 260 261 263 262 262 262 260 258 257
247 245 247 248 246 246 246 246 246 243 241 241 240 240 241 243 243 243 246 251 252 252 252 252 249 247 246 246 248 251 254 255 256 255 256 260 262 261 260 260 260 259
246 244 244 246 246 247 247 248 247 245 242 241 239 238 239 242 243 242 242 244 248 249 250 251 252 251 249 249 250 252 254 256 258 258 257 260 263 263 260 259 259 258
245 242 242 244 247 247 247 247 247 244 241 240 240 240 241 243 245 245 245 245 247 248 247 248 251 253 252 252 253 254 256 258 260 262 263 264 266 266 263 259 258 259
244 241 242 246 247 247 246 246 247 245 242 241 243 244 244 244 246 247 247 248 248 250 250 250 250 251 253 255 257 258 259 260 260 261 261 263 265 267 265 262 262 262
242 243 244 247 247 247 246 245 246 244 241 241 244 245 245 246 246 246 248 251 251 251 251 250 249 249 251 255 258 259 260 262 262 261 260 260 261 263 264 265 265 266
245 246 246 247 247 246 244 243 245 245 240 238 240 242 242 245 246 246 247 250 251 250 251 252 251 251 251 254 257 259 260 262 262 261 260 258 258 260 262 265 267 269
Height
5938 5938 5939 5940 5940 5941 5942 5943 5943 5944 5944 5944 5945 5946 5946 5946 5947 5947 5948 5948 5949 5949 5949 5949 5949 5949 5950 5950 5951 5951 5951 5951 5951 5951 5951 5951 5952 5952 5952 5952 5951 5951
5937 5937 5938 5938 5939 5940 5941 5942 5942 5943 5943 5944 5944 5945 5945 5946 5946 5947 5948 5948 5949 5949 5949 5949 5949 5949 5950 5950 5951 5951 5951 5951 5951 5951 5951 5951 5951 5951 5951 5951 5951 5951
5936 5937 5937 5937 5938 5938 5939 5940 5941 5941 5942 5942 5943 5943 5944 5945 5946 5946 5947 5948 5948 5949 5949 5949 5949 5949 5950 5950 5950 5951 5951 5951 5951 5951 5951 5951 5951 5951 5950 5950 5950 5950
5934 5935 5936 5936 5937 5937 5938 5939 5939 5940 5940 5941 5942 5942 5943 5944 5945 5945 5946 5947 5948 5948 5949 5949 5949 5950 5950 5950 5950 5950 5951 5951 5951 5951 5951 5951 5951 5951 5950 5950 5950 5950
5933 5934 5934 5935 5936 5936 5937 5937 5938 5938 5939 5940 5940 5941 5942 5943 5943 5944 5945 5946 5947 5948 5948 5949 5949 5950 5950 5950 5950 5951 5951 5951 5951 5951 5951 5951 5951 5950 5950 5950 5950 5950
5931 5932 5933 5933 5934 5935 5935 5936 5936 5937 5937 5938 5939 5940 5940 5941 5942 5943 5944 5945 5946 5947 5948 5948 5949 5950 5950 5951 5951 5951 5951 5951 5951 5951 5951 5951 5950 5950 5950 5950 5950 5950
5929 5930 5931 5931 5932 5933 5933 5934 5935 5935 5936 5937 5938 5938 5939 5940 5940 5941 5942 5943 5944 5946 5947 5948 5949 5949 5950 5950 5950 5950 5950 5950 5950 5950 5950 5950 5950 5950 5950 5950 5950 5950
5927 5927 5928 5929 5930 5931 5932 5932 5933 5934 5935 5935 5936 5937 5938 5938 5939 5940 5941 5942 5943 5944 5946 5947 5947 5948 5948 5948 5948 5949 5949 5949 5949 5950 5950 5949 5949 5949 5949 5949 5949 5949
5925 5926 5927 5928 5929 5929 5930 5931 5932 5932 5933 5934 5934 5935 5936 5937 5937 5938 5939 5940 5941 5943 5944 5945 5945 5946 5946 5946 5946 5946 5947 5947 5948 5948 5948 5948 5948 5948 5948 5949 5949 5948
5924 5925 5926 5927 5927 5928 5928 5929 5930 5931 5931 5932 5932 5933 5934 5934 5935 5937 5938 5939 5940 5940 5941 5942 5943 5943 5944 5944 5944 5944 5945 5945 5946 5946 5946 5946 5946 5946 5946 5947 5947 5947
5923 5924 5925 5925 5926 5926 5927 5927 5928 5929 5930 5930 5931 5931 5932 5933 5933 5934 5935 5937 5937 5938 5939 5940 5940 5941 5941 5942 5942 5943 5943 5943 5944 5944 5945 5945 5945 5944 5944 5944 5944 5945
5921 5922 5923 5924 5924 5925 5926 5926 5927 5928 5929 5929 5930 5931 5931 5932 5932 5933 5934 5935 5935 5936 5937 5937 5938 5939 5939 5940 5941 5941 5942 5942 5942 5943 5943 5943 5943 5943 5943 5942 5942 5942
5919 5920 5921 5922 5923 5924 5924 5925 5926 5927 5928 5928 5929 5930 5931 5931 5932 5932 5932 5933 5934 5934 5935 5935 5936 5937 5937 5938 5938 5938 5939 5940 5940 5940 5940 5941 5941 5941 5941 5941 5941 5940
5915 5916 5917 5918 5919 5920 5921 5922 5923 5924 5925 5925 5926 5928 5929 5930 5931 5931 5931 5932 5932 5932 5933 5933 5934 5934 5935 5935 5935 5936 5936 5937 5937 5937 5938 5938 5939 5939 5939 5940 5940 5939
5911 5912 5913 5914 5915 5916 5917 5919 5920 5921 5922 5922 5923 5924 5925 5926 5928 5929 5929 5929 5929 5929 5930 5931 5932 5932 5932 5932 5933 5933 5934 5934 5934 5935 5935 5936 5936 5937 5937 5937 5938 5938
5906 5908 5909 5910 5911 5912 5913 5914 5916 5917 5918 5919 5920 5921 5921 5922 5924 5925 5926 5927 5927 5927 5928 5928 5929 5929 5930 5930 5931 5932 5933 5933 5933 5932 5932 5933 5934 5934 5934 5935 5935 5935
5902 5903 5904 5906 5907 5908 5909 5910 5911 5913 5914 5915 5916 5917 5918 5920 5921 5922 5923 5923 5923 5924 5925 5926 5927 5927 5928 5929 5929 5930 5931 5931 5931 5930 5930 5930 5931 5931 5931 5931 5932 5933
5900 5900 5901 5903 5904 5904 5905 5906 5907 5908 5909 5910 5912 5914 5915 5917 5918 5919 5919 5919 5919 5920 5921 5922 5923 5924 5925 5925 5925 5925 5926 5927 5928 5928 5928 5928 5928 5928 5929 5929 5929 5929
5897 5898 5899 5899 5899 5900 5901 5902 5903 5904 5905 5907 5909 5911 5912 5913 5914 5914 5915 5915 5915 5916 5917 5918 5919 5920 5920 5921 5921 5922 5922 5923 5924 5925 5926 5926 5925 5926 5926 5927 5926 5926
5893 5894 5895 5894 5895 5897 5898 5899 5899 5901 5903 5905 5907 5908 5909 5909 5910 5911 5912 5913 5914 5914 5915 5915 5915 5915 5915 5916 5917 5918 5919 5920 5921 5921 5922 5922 5922 5922 5922 5923 5923 5922
5888 5890 5890 5890 5891 5893 5895 5896 5897 5899 5900 5901 5902 5903 5904 5905 5905 5908 5910 5911 5911 5912 5912 5913 5912 5911 5911 5912 5913 5915 5916 5917 5917 5917 5917 5917 5917 5918 5918 5918 5918 5919
5884 5885 5886 5886 5887 5889 5891 5893 5895 5896 5897 5897 5898 5899 5900 5901 5902 5904 5906 5907 5906 5907 5908 5909 5909 5909 5909 5909 5910 5911 5912 5913 5914 5914 5914 5914 5914 5914 5914 5914 5914 5914
5878 5879 5880 5882 5883 5884 5886 5888 5890 5891 5892 5893 5893 5895 5897 5898 5899 5900 5901 5902 5902 5902 5903 5904 5904 5905 5906 5906 5906 5907 5908 5909 5910 5910 5911 5911 5910 5909 5909 5910 5910 5910
5872 5873 5875 5878 5879 5880 5881 5883 5885 5886 5887 5889 5890 5892 5893 5894 5895 5896 5897 5897 5898 5898 5898 5899 5900 5900 5901 5901 5902 5903 5904 5904 5905 5906 5907 5907 5906 5906 5905 5905 5906 5906
5868 5869 5872 5873 5875 5875 5875 5877 5879 5880 5882 5885 5887 5888 5888 5889 5890 5891 5892 5893 5893 5894 5894 5895 5895 5896 5897 5897 5898 5899 5899 5899 5900 5901 5902 5902 5902 5902 5901 5901 5901 5902
5865 5866 5868 5869 5870 5871 5871 5873 5875 5874 5876 5880 5882 5882 5883 5883 5884 5886 5887 5888 5889 5890 5890 5891 5891 5891 5892 5893 5893 5894 5895 5895 5895 5896 5897 5897 5897 5897 5897 5897 5897 5897